Location: *
(57.6680°S, 48.3040°W)
Time: 14:01:02
(UTC+00:00)

Daily predictions for brighter satellites

Satellite Brightness Start Highest point End
(mag) Time Altitude Azimuth Time Altitude Azimuth Time Altitude Azimuth
Okean 1-7 Rocket 3.8 19:13:49 10° SSW 19:18:23 84° W 19:22:57 10° N
EO 1 Del DPAF 3.3 19:15:52 10° NNE 19:19:48 88° ESE 19:23:48 10° SSW
Cosmos 2227 Rocket 2.5 19:15:25 10° SW 19:21:01 49° SE 19:26:35 10° ENE
Cosmos 1867 3.7 19:17:46 10° SW 19:23:10 60° SSE 19:28:34 10° ENE
Okean 2 3.4 19:19:11 10° SSW 19:23:25 87° ESE 19:27:35 10° NNE
CZ-4B R/B 3.4 19:18:12 10° SSE 19:23:43 58° ENE 19:29:05 10° N
Cosmos 1844 Rocket 4.1 19:21:18 10° WSW 19:25:52 24° SSW 19:30:25 10° SE
Cosmos 1515 3.7 19:22:16 10° S 19:26:12 70° ESE 19:30:04 10° NNE
CZ-4C R/B 2.9 19:20:19 10° W 19:27:12 52° S 19:33:08 10° ESE
PSLV R/B 3.7 19:22:52 10° SSE 19:27:22 69° ENE 19:31:46 10° N
IRS-1C Rocket 4.3 19:23:18 10° SSE 19:28:38 61° ENE 19:33:54 10° N
Cosmos 1140 Rocket 4.5 19:25:33 10° SSW 19:30:06 27° SE 19:34:37 10° E
Cosmos 372 Rocket 4.1 19:25:12 10° NNW 19:30:25 85° WSW 19:35:44 10° SSE
ERS-2 4.2 19:30:22 10° ESE 19:32:02 12° E 19:33:40 10° ENE
Meteor 1-11 Rocket 3.9 19:27:22 10° NNW 19:33:11 83° WSW 19:38:57 10° SSE
Meteor 1-31 Rocket 3.4 19:33:12 10° SSE 19:37:00 40° E 19:40:47 10° NNE
Cosmos 2181 Rocket 4.2 19:30:41 10° S 19:37:06 54° ESE 19:43:22 10° NE
Resurs 1-4 Rocket 3.8 19:32:45 10° S 19:37:16 28° SW 19:41:44 10° WNW
Cosmos 407 Rocket 3.9 19:32:47 10° SSW 19:37:58 44° SE 19:43:02 10° ENE
Cosmos 1536 3.0 19:34:11 10° NNW 19:38:21 81° WSW 19:42:33 10° SSE
Meteor PRIRODA 4.0 19:35:01 10° SSE 19:38:43 48° E 19:42:22 10° N
IDEFIX/ARIANE 42P 4.1 19:36:02 10° SE 19:39:15 16° E 19:42:28 10° ENE
CZ-2C R/B 4.5 19:35:59 10° N 19:40:25 58° WNW 19:44:59 10° SSW
COSMO-SKYMED 1 2.7 19:38:57 10° NNE 19:43:17 59° ESE 19:47:40 10° S
Okean 1 Rocket 3.2 19:41:02 10° NNW 19:45:29 83° WSW 19:50:00 10° SSE
Okean-O 3.3 19:42:06 10° SSE 19:46:22 38° E 19:50:33 10° NNE
CZ-2D R/B 3.9 19:43:10 10° S 19:47:37 26° SW 19:51:58 10° WNW
USA 238 DEB 3.9 19:41:13 10° NW 19:48:27 87° SSW 19:55:19 12° ESE
USA 238 3.9 19:41:19 10° NW 19:48:34 88° SSW 19:55:25 12° ESE
Meteor 1-5 Rocket 4.1 19:44:29 10° N 19:49:51 84° ENE 19:55:19 10° SSE
Cosmos 724 4.3 19:46:02 10° NW 19:51:51 80° NE 19:57:24 12° SE
Cosmos 1842 4.1 19:51:52 10° S 19:55:26 30° ESE 19:58:59 10° NE
Cosmos 1626 Rocket 3.8 19:51:13 10° S 19:55:33 49° ESE 19:59:49 10° NNE
COSMOS 2455 3.0 19:52:46 10° NNW 19:58:44 63° NE 20:04:11 13° SE
Okean O Rocket 2.1 19:56:25 10° SSE 20:00:57 64° WSW 20:05:23 10° NNW
CZ-4B R/B 3.8 19:58:43 10° S 20:03:00 56° WSW 20:07:24 10° NW
Cosmos 1975 3.1 20:00:18 10° N 20:04:13 47° E 20:08:11 10° SSE
Cosmos 2292 Rocket 4.3 20:01:21 10° N 20:08:06 68° E 20:13:10 10° SSE
Cosmos 1544 Rocket 3.8 20:03:48 10° N 20:08:14 55° E 20:12:42 10° SSE
Cosmos 2278 Rocket 3.7 20:04:52 10° WSW 20:09:30 24° SSW 20:13:42 12° SE
USA 267 3.5 20:03:49 12° ESE 20:09:58 68° NNE 20:16:34 10° WNW
Cosmos 1825 Rocket 4.3 20:07:59 10° S 20:11:56 30° ESE 20:15:50 10° NE
Cosmos 2082 3.7 20:07:40 10° SW 20:13:28 77° SE 20:19:11 10° NE
Cosmos 1066 Rocket 4.4 20:08:06 10° SSW 20:13:37 75° WNW 20:19:11 10° N
Cosmos 1500 3.2 20:11:54 10° N 20:15:49 70° E 20:19:49 10° SSE
APEX 3.1 20:13:18 10° SW 20:16:48 68° SE 20:21:11 10° NE
Cosmos 2369 Rocket 2.7 20:13:42 10° NW 20:19:22 59° SW 20:24:32 13° SSE
Cosmos 1743 3.3 20:16:59 10° NNE 20:20:37 38° E 20:23:24 16° SSE
Cosmos 2297 Rocket 2.2 20:16:33 10° SW 20:22:19 82° SE 20:28:02 10° NE
Cosmos 1943 Rocket 2.3 20:16:50 10° NW 20:22:26 80° SW 20:27:23 14° SE
GENESIS II 4.2 20:19:31 10° NW 20:23:22 70° NE 20:25:45 22° ESE
Cosmos 1190 Rocket 4.0 20:18:45 10° SSW 20:24:11 83° ESE 20:29:34 10° NNE
IRAS Rocket 4.3 20:19:14 10° SSE 20:24:57 70° ENE 20:30:37 10° NNW
Cosmos 44 4.2 20:21:01 10° W 20:26:03 44° SSW 20:29:43 18° SE
Cosmos 1709 Rocket 4.0 20:21:14 10° N 20:27:27 70° E 20:33:50 10° SSE
Cosmos 676 Rocket 4.1 20:22:08 10° SSW 20:27:33 63° SE 20:32:54 10° NE
Cosmos 1953 Rocket 4.3 20:24:14 10° S 20:28:24 33° ESE 20:32:31 10° NE
Cosmos 1455 Rocket 3.1 20:24:44 10° N 20:29:13 72° E 20:33:47 10° SSE
NOSS 3-2 (C) 3.9 20:21:42 10° NW 20:29:37 83° NE 20:35:05 19° ESE
Cosmos 44 Rocket 4.2 20:24:50 10° W 20:29:42 41° SSW 20:32:58 19° SE
SKYMED 2 4.3 20:27:02 10° N 20:31:24 59° WNW 20:35:49 10° SSW
NOSS 3-2 (A) 3.9 20:23:37 10° NW 20:31:30 88° SW 20:36:53 19° ESE
Iridium 4 Rocket 3.2 20:28:01 10° N 20:32:52 64° E 20:37:21 10° S
ADEOS II 3.4 20:31:10 10° S 20:36:05 39° WSW 20:40:59 10° NW
Radarsat Rocket 4.0 20:30:13 10° SSE 20:36:09 58° ENE 20:41:58 10° N
Cosmos 2263 Rocket 3.2 20:31:57 10° SW 20:36:53 29° SSE 20:39:08 22° ESE
Cosmos 921 Rocket 4.3 20:34:10 10° NE 20:37:16 21° E 20:37:16 21° E
Cosmos 1461 4.1 20:37:08 10° WSW 20:41:24 33° S 20:43:27 23° SE
Cosmos 1602 Rocket 3.8 20:38:06 10° SSW 20:42:34 75° W 20:46:58 10° N
CZ-4 R/B 3.2 20:44:40 16° ENE 20:44:40 16° ENE 20:46:05 10° NE
Lacrosse 4 Rocket 3.5 20:43:13 10° WSW 20:46:49 29° WNW 20:50:23 10° N
Cosmos 1656 Rocket 3.7 20:41:51 10° NNW 20:47:36 85° NE 20:51:44 20° SE
ATLAS 3B R/B 3.0 20:44:07 10° W 20:50:54 58° SSW 20:55:25 24° ESE
Nadezhda 3 Rocket 4.1 20:45:21 10° S 20:51:42 54° ESE 20:57:59 10° NNE
Cosmos 2056 Rocket 4.2 20:47:00 10° N 20:51:52 36° ENE 20:53:46 28° ESE
ATLAS 5 CENTAUR R/B 3.6 20:47:37 10° WSW 20:52:38 36° NW 20:57:11 10° N
CENTAUR R/B 2.9 20:46:26 10° NNW 20:53:56 60° NE 20:57:56 26° ESE
CZ-2C R/B 2.7 20:51:40 21° SE 20:54:35 43° E 20:59:12 10° NNE
Meteor 1-24 Rocket 4.5 20:50:17 10° S 20:55:34 32° ESE 20:57:47 25° E
Genesis I 4.3 20:52:08 10° WSW 20:55:41 30° S 20:56:35 27° SSE
CSL-04 Rocket 4.0 20:54:30 18° SSE 20:58:24 45° E 21:03:41 10° N
Cosmos 2154 Rocket 4.5 20:54:11 10° NNE 20:59:45 35° E 21:03:47 17° SSE
Cosmos 1697 Rocket 4.3 21:00:14 10° NE 21:02:36 17° ENE 21:02:36 17° ENE
Cosmos 2227 Rocket 3.1 20:59:39 10° SW 21:05:12 52° WNW 21:10:44 10° N
ERS-2 2.0 21:04:37 30° SSE 21:06:22 82° ENE 21:10:08 10° NNW
Cosmos 1867 4.5 21:01:33 10° SW 21:06:48 50° NW 21:12:01 10° NNE
Cosmos 1666 2.6 21:04:04 10° N 21:08:01 78° ENE 21:09:55 30° SSE
CSL-04 Debris 4.4 21:08:20 24° SE 21:11:26 49° E 21:16:48 10° N
Meteor 1-31 Rocket 4.5 21:07:50 10° S 21:11:26 32° WSW 21:15:00 10° NW
Cosmos 909 Rocket 4.3 21:05:27 10° WNW 21:11:41 65° SSW 21:15:36 26° SE
Cosmos 1844 Rocket 4.0 21:07:09 10° SW 21:11:42 23° SSE 21:12:46 22° SSE
Ariane Rocket 3.1 21:09:08 26° SE 21:11:56 55° ENE 21:16:58 10° N
Cosmos 1140 Rocket 3.4 21:07:16 10° SSW 21:12:39 87° ESE 21:17:59 10° NNE
SL-08 ROCKET BODY 4.3 21:10:17 10° N 21:16:14 84° E 21:22:13 10° SSE
CZ-4C R/B 2.4 21:10:00 10° WSW 21:16:37 63° SSE 21:18:56 37° E
Molniya-1 4.1 21:13:36 10° WNW 21:19:44 62° SSW 21:20:52 41° SE
IDEFIX/ARIANE 42P 2.5 21:15:54 19° SSE 21:19:51 72° ENE 21:25:08 10° N
Cosmos 407 Rocket 4.5 21:14:56 10° SW 21:20:07 49° WNW 21:25:11 10° N
Cosmos 2074 Rocket 3.9 21:15:32 10° N 21:21:49 77° E 21:28:11 10° SSE
Okean-O 3.9 21:18:39 10° S 21:22:54 41° WSW 21:27:08 10° NW
Cosmos 405 2.9 21:20:10 10° NNW 21:23:49 89° ENE 21:24:15 68° SSE
Helios 1B rocket 4.2 21:26:56 20° S 21:26:56 20° S 21:28:26 10° S
Cosmos 1437 Rocket 3.0 21:20:57 10° N 21:24:30 52° NE 21:24:30 52° NE
Meteor 2-8 Rocket 4.4 21:19:15 10° SSW 21:25:34 82° ESE 21:31:49 10° NNE
MSX 3.8 21:26:57 26° SSE 21:30:16 60° ENE 21:35:59 10° N
Cosmos 1954 Rocket 4.5 21:27:02 10° SSW 21:32:24 63° WNW 21:37:40 10° NNE
Cosmos 1606 Rocket 4.2 21:29:50 10° N 21:33:10 42° NE 21:33:10 42° NE
Cosmos 1371 Rocket 3.9 21:29:20 10° NNW 21:34:34 80° ENE 21:36:20 44° SE
Cosmos 1850 Rocket 3.9 21:29:43 10° SSW 21:35:08 83° ESE 21:38:10 26° NE
Cosmos 1758 Rocket 3.6 21:30:49 10° SSW 21:35:15 80° WNW 21:39:39 10° N
Cosmos 1610 Rocket 4.4 21:29:02 10° N 21:35:16 69° E 21:41:40 10° SSE
Okean O Rocket 4.3 21:33:50 10° S 21:36:33 16° SW 21:39:15 10° W
USA 238 DEB 4.1 21:32:59 10° W 21:40:04 56° S 21:42:44 37° SE
USA 238 4.1 21:33:05 10° W 21:40:10 56° S 21:42:50 37° SE
Cosmos 2227 4.1 21:38:16 10° SW 21:44:06 84° SE 21:46:31 37° NE
COSMOS 2455 3.4 21:39:01 10° WNW 21:44:56 51° SSW 21:47:20 33° SSE
Cosmos 2278 3.7 21:45:56 10° NNW 21:51:31 59° ENE 21:51:42 59° ENE
Cosmos 614 Rocket 4.4 21:46:39 10° SW 21:51:50 63° WNW 21:57:01 10° NNE
USA 267 3.2 21:51:10 48° E 21:53:16 86° N 21:59:56 10° W
Cosmos 2278 Rocket 3.7 21:50:58 10° SW 21:55:31 23° SSE 21:55:33 23° SSE
Cosmos 2184 Rocket 4.2 21:49:55 10° NNW 21:56:10 73° WSW 22:02:34 10° S
Cosmos 1741 Rocket 4.1 21:52:33 10° SSW 21:57:54 76° WNW 22:00:29 32° NNE
SMAP 3.1 21:59:16 67° N 21:59:16 67° N 22:03:23 10° NNW
Meteor 2-9 Rocket 4.5 21:58:39 10° NNW 22:04:24 68° WSW 22:07:55 24° S
Cosmos 2369 Rocket 3.7 21:59:45 10° WSW 22:04:32 26° SSW 22:06:19 23° S
Cosmos 1980 Rocket 4.4 21:59:44 10° NNE 22:00:06 12° NNE 22:00:06 12° NNE
Meteor 2-5 Rocket 3.9 21:59:11 10° SSW 22:05:12 78° WNW 22:11:12 10° N
Cosmos 2297 Rocket 4.3 22:01:09 10° SW 22:05:51 27° WNW 22:10:31 10° NNW
Cosmos 1943 Rocket 3.6 22:02:04 10° W 22:07:00 31° SSW 22:08:55 25° S
CORIOLIS 4.1 22:08:36 73° NE 22:08:36 73° NE 22:13:40 10° NNW
Cosmos 44 4.3 22:03:20 10° WSW 22:08:08 39° S 22:08:08 39° S
Cosmos 1624 Rocket 4.1 22:04:14 10° NW 22:09:34 74° WSW 22:10:20 63° S
Meteor 1-15 Rocket 4.3 22:03:51 10° NNW 22:09:50 84° WSW 22:12:39 34° SSE
Cosmos 44 Rocket 4.4 22:07:25 10° WSW 22:11:41 37° S 22:11:41 37° S
Cosmos 2341 Rocket 3.8 22:08:26 10° N 22:14:45 75° E 22:15:22 69° SE
Cosmos 921 Rocket 3.8 22:10:59 10° NW 22:14:07 47° NW 22:14:07 47° NW
IRS-1A Rocket 4.2 22:17:17 63° SSE 22:18:17 88° WSW 22:24:07 10° NNW
CZ-4 R/B 3.2 22:20:43 26° NNW 22:20:43 26° NNW 22:22:36 10° NNW
NOSS 3-2 (C) 4.0 22:13:33 10° W 22:21:06 59° SSW 22:22:32 50° SSE
Cosmos 2263 Rocket 2.4 22:16:04 10° SW 22:20:50 58° S 22:20:50 58° S
Cosmos 2369 3.7 22:16:41 10° NNW 22:21:56 76° NNW 22:21:56 76° NNW
NOSS 3-2 (A) 4.0 22:15:36 10° W 22:23:04 56° S 22:24:17 51° SSE
CZ-2C R/B 3.5 22:31:03 30° SSW 22:32:53 41° WSW 22:37:26 10° NW
Cosmos 2056 Rocket 4.0 22:28:32 10° NW 22:33:51 58° SW 22:34:09 57° SW
Cosmos 1607 4.5 22:29:55 10° WSW 22:35:23 47° S 22:35:23 47° S
Meteor 1-24 Rocket 4.0 22:33:18 10° SSW 22:39:12 70° W 22:40:04 61° NNW
Cosmos 1656 4.3 22:36:17 10° NW 22:40:29 51° NW 22:40:29 51° NW
ATLAS 3B R/B 3.0 22:35:45 10° WSW 22:42:39 56° S 22:42:40 56° SSE
CENTAUR R/B 2.8 22:37:21 10° WNW 22:44:43 67° SSW 22:45:07 66° S
Cosmos 2154 Rocket 4.4 22:38:49 10° NNW 22:45:01 61° WSW 22:48:39 26° S
Cosmos 1697 Rocket 4.0 22:41:35 10° NNW 22:44:23 30° NNW 22:44:23 30° NNW
Ariane Rocket 4.4 22:49:20 30° SSW 22:50:46 36° WSW 22:55:25 10° WNW
Cosmos 1844 Rocket 4.2 22:51:33 10° SSW 22:54:26 28° SSW 22:54:26 28° SSW
IDEFIX/ARIANE 42P 4.3 22:56:43 21° SSW 22:59:06 29° SW 23:03:37 10° WNW
CZ-4C R/B 3.0 22:59:03 10° WSW 23:04:07 50° W 23:04:07 50° W
USA 238 DEB 4.5 23:24:50 10° WSW 23:30:10 48° SW 23:30:10 48° SW
COSMOS 2455 4.4 23:26:34 10° WSW 23:30:28 30° SSW 23:30:28 30° SSW
USA 238 4.5 23:24:56 10° WSW 23:30:16 48° SW 23:30:16 48° SW
USA 267 4.0 23:38:31 48° W 23:38:31 48° W 23:43:11 10° WSW
Cosmos 2278 Rocket 4.3 23:35:36 10° SSW 23:37:23 20° SSW 23:37:23 20° SSW
Cosmos 2369 Rocket 4.5 23:46:04 10° SW 23:48:07 17° SSW 23:48:07 17° SSW
Cosmos 1943 Rocket 4.5 23:48:16 10° SW 23:50:27 18° SSW 23:50:27 18° SSW
